Location: Fayetteville
(35.0530°N, 78.8790°W)
Time: 12:05:43
(UTC-04:00)

ISS - Visible Passes

Search period start: 26 July 2016 00:00
Search period end: 05 August 2016 00:00
Orbit: 401 x 404 km, 51.6° (Epoch: 26 July)

Date Brightness Start Highest point End Pass type
(mag) Time Alt. Az. Time Alt. Az. Time Alt. Az.
26 Jul -1.5 04:51:46 10° NNW 04:54:46 33° NE 04:57:46 10° ESE visible
26 Jul -3.4 21:28:31 10° SW 21:31:44 61° SE 21:34:57 10° NE visible
26 Jul -0.1 23:06:27 10° WNW 23:08:25 15° NNW 23:10:24 10° N visible
27 Jul -0.5 03:59:14 10° NNW 04:01:40 19° NNE 04:04:06 10° E visible
27 Jul -2.9 05:35:09 10° WNW 05:38:13 39° SW 05:41:16 10° SSE visible
27 Jul -0.9 22:12:31 10° W 22:15:16 24° NW 22:18:00 10° NNE visible
28 Jul 0.1 03:08:05 12° NNE 03:08:28 12° NNE 03:09:51 10° NE visible
28 Jul -3.4 04:42:03 10° NW 04:45:18 89° NE 04:48:33 10° SE visible
28 Jul -2.2 21:19:02 10° WSW 21:22:11 46° NW 21:25:20 10° NE visible
29 Jul -1.3 05:29:40 13° SSW 05:29:40 13° SSW 05:30:22 10° SSW visible
29 Jul 0.0 22:04:19 10° WNW 22:05:58 13° NNW 22:07:39 10° N visible
30 Jul -0.5 21:10:10 10° W 21:12:45 21° NNW 21:15:19 10° NNE visible
01 Aug -0.1 21:02:07 10° NW 21:03:24 12° NNW 21:04:41 10° N visible
